Location: Colonial Hills
(40.5656°N, 77.6119°W)
Time: 16:56:39
(UTC+00:00)

X-37B - Visible Passes

Search period start: 25 November 2020 00:00
Search period end: 05 December 2020 00:00
Orbit: 384 x 389 km, 45.0° (Epoch: 12 November)

Date Brightness Start Highest point End Pass type
(mag) Time Alt. Az. Time Alt. Az. Time Alt. Az.
25 Nov 2.6 23:02:04 10° S 23:04:07 16° SE 23:04:30 16° SE visible
26 Nov 1.7 23:38:46 10° SW 23:41:02 39° SSW 23:41:02 39° SSW visible
27 Nov 1.8 22:40:35 10° SSW 22:43:23 29° SSE 22:45:13 17° E visible
28 Nov 3.7 00:16:46 10° W 00:17:30 16° W 00:17:30 16° W visible
28 Nov 0.4 23:18:07 10° WSW 23:21:16 88° NNW 23:21:38 67° ENE visible
29 Nov 1.0 22:19:38 10° SW 22:22:44 53° SSE 22:25:44 11° ENE visible
29 Nov 2.8 23:56:23 10° W 23:58:00 25° WNW 23:58:00 25° WNW visible
30 Nov 0.9 22:57:38 10° W 23:00:45 57° NNW 23:02:04 30° NE visible
01 Dec 2.0 23:36:02 10° WNW 23:38:22 32° NNW 23:38:22 32° NNW visible
02 Dec 1.3 22:37:15 10° W 22:40:17 42° N 22:42:25 17° NE visible
03 Dec 3.8 00:14:19 10° WNW 00:14:41 12° WNW 00:14:41 12° WNW visible
03 Dec 1.5 23:15:39 10° WNW 23:18:35 34° N 23:18:44 34° N visible
04 Dec 1.5 22:16:54 10° WNW 22:19:51 35° N 22:22:49 10° ENE visible
04 Dec 2.9 23:53:47 10° WNW 23:55:05 21° NW 23:55:05 21° NW visible
